contact:dominique.lefevre@mio.osupytheas.fr, maurice.libes@osupytheas.fr, didier.mallarino@osupytheas.fr
Project:EMSO http://www.emso-fr.org/EMSO-France
Depth: 2436.0 m
Title:EMSO Ligure Ouest : Data MII capteur MICROCAT
DateTime_Computer,Latitude,Longitude,Temperature,Conductivity,Pressure,DateTime_Instrument
DateTime_Computer,Latitude,Longitude,degC,S m-1,dbar,DateTime_Instrument
2019-12-15T00:01:20Z,42.805,6.029,13.2973,4.59971,2469.914,2019-12-15T02:01:50Z
2019-12-15T00:04:23Z,42.805,6.029,13.2974,4.59971,2469.914,2019-12-15T02:04:53Z
2019-12-15T00:07:26Z,42.805,6.029,13.2973,4.59970,2469.9,2019-12-15T02:07:56Z
2019-12-15T00:10:29Z,42.805,6.029,13.2976,4.59970,2469.89,2019-12-15T02:10:59Z
2019-12-15T00:13:32Z,42.805,6.029,13.2974,4.59971,2469.9,2019-12-15T02:14:03Z
2019-12-15T00:16:36Z,42.805,6.029,13.2976,4.59971,2469.914,2019-12-15T02:17:06Z
2019-12-15T00:19:39Z,42.805,6.029,13.2974,4.59973,2469.937,2019-12-15T02:20:09Z
2019-12-15T00:22:42Z,42.805,6.029,13.2975,4.59971,2469.876,2019-12-15T02:23:12Z
2019-12-15T00:25:45Z,42.805,6.029,13.2977,4.59973,2469.876,2019-12-15T02:26:15Z
2019-12-15T00:28:48Z,42.805,6.029,13.2973,4.59972,2469.876,2019-12-15T02:29:18Z
2019-12-15T00:31:52Z,42.805,6.029,13.2975,4.59971,2469.853,2019-12-15T02:32:22Z
2019-12-15T00:34:55Z,42.805,6.029,13.2975,4.59971,2469.876,2019-12-15T02:35:25Z
2019-12-15T00:37:58Z,42.805,6.029,13.2973,4.59970,2469.9,2019-12-15T02:38:28Z
2019-12-15T00:41:01Z,42.805,6.029,13.2977,4.59970,2469.9,2019-12-15T02:41:31Z
2019-12-15T00:44:04Z,42.805,6.029,13.2975,4.59971,2469.876,2019-12-15T02:44:34Z
2019-12-15T00:47:08Z,42.805,6.029,13.2973,4.59971,2469.867,2019-12-15T02:47:38Z
2019-12-15T00:50:11Z,42.805,6.029,13.2973,4.59971,2469.853,2019-12-15T02:50:41Z
2019-12-15T00:53:14Z,42.805,6.029,13.2976,4.59971,2469.867,2019-12-15T02:53:44Z
2019-12-15T00:56:17Z,42.805,6.029,13.2971,4.59971,2469.867,2019-12-15T02:56:47Z
2019-12-15T00:59:20Z,42.805,6.029,13.2974,4.59971,2469.853,2019-12-15T02:59:50Z
2019-12-15T01:02:23Z,42.805,6.029,13.2976,4.59972,2469.876,2019-12-15T03:02:54Z
2019-12-15T01:05:27Z,42.805,6.029,13.2976,4.59971,2469.83,2019-12-15T03:05:57Z
2019-12-15T01:08:30Z,42.805,6.029,13.2974,4.59973,2469.853,2019-12-15T03:09:00Z
2019-12-15T01:11:33Z,42.805,6.029,13.2971,4.59973,2469.844,2019-12-15T03:12:03Z
2019-12-15T01:14:37Z,42.805,6.029,13.2974,4.59971,2469.853,2019-12-15T03:15:07Z
2019-12-15T01:17:40Z,42.805,6.029,13.2971,4.59971,2469.83,2019-12-15T03:18:10Z
2019-12-15T01:20:43Z,42.805,6.029,13.2969,4.59971,2469.867,2019-12-15T03:21:13Z
2019-12-15T01:23:46Z,42.805,6.029,13.2973,4.59971,2469.89,2019-12-15T03:24:16Z
2019-12-15T01:26:49Z,42.805,6.029,13.2976,4.59971,2469.83,2019-12-15T03:27:19Z
2019-12-15T01:29:53Z,42.805,6.029,13.2974,4.59971,2469.806,2019-12-15T03:30:23Z
2019-12-15T01:32:56Z,42.805,6.029,13.2974,4.59971,2469.853,2019-12-15T03:33:26Z
2019-12-15T01:35:59Z,42.805,6.029,13.2973,4.59971,2469.853,2019-12-15T03:36:29Z
2019-12-15T01:39:02Z,42.805,6.029,13.2974,4.59973,2469.853,2019-12-15T03:39:32Z
2019-12-15T01:42:06Z,42.805,6.029,13.2976,4.59972,2469.867,2019-12-15T03:42:36Z
2019-12-15T01:45:09Z,42.805,6.029,13.2974,4.59972,2469.853,2019-12-15T03:45:39Z
2019-12-15T01:48:12Z,42.805,6.029,13.2969,4.59971,2469.853,2019-12-15T03:48:42Z
2019-12-15T01:51:15Z,42.805,6.029,13.2974,4.59971,2469.83,2019-12-15T03:51:45Z
2019-12-15T01:54:18Z,42.805,6.029,13.2972,4.59972,2469.806,2019-12-15T03:54:48Z
2019-12-15T01:57:22Z,42.805,6.029,13.2976,4.59971,2469.876,2019-12-15T03:57:52Z
2019-12-15T02:00:25Z,42.805,6.029,13.2976,4.59971,2469.867,2019-12-15T04:00:55Z
2019-12-15T02:03:28Z,42.805,6.029,13.2976,4.59973,2469.844,2019-12-15T04:03:58Z
2019-12-15T02:06:31Z,42.805,6.029,13.2976,4.59971,2469.83,2019-12-15T04:07:01Z
2019-12-15T02:09:34Z,42.805,6.029,13.2971,4.59971,2469.853,2019-12-15T04:10:04Z
2019-12-15T02:12:37Z,42.805,6.029,13.2972,4.59971,2469.806,2019-12-15T04:13:07Z
2019-12-15T02:15:41Z,42.805,6.029,13.2969,4.59971,2469.844,2019-12-15T04:16:11Z
2019-12-15T02:18:44Z,42.805,6.029,13.2974,4.59972,2469.844,2019-12-15T04:19:14Z
2019-12-15T02:21:47Z,42.805,6.029,13.2977,4.59971,2469.867,2019-12-15T04:22:17Z
2019-12-15T02:24:50Z,42.805,6.029,13.2974,4.59973,2469.806,2019-12-15T04:25:20Z
2019-12-15T02:27:53Z,42.805,6.029,13.2970,4.59973,2469.844,2019-12-15T04:28:23Z
2019-12-15T02:30:56Z,42.805,6.029,13.2972,4.59973,2469.853,2019-12-15T04:31:27Z
2019-12-15T02:34:00Z,42.805,6.029,13.2973,4.59971,2469.853,2019-12-15T04:34:30Z
2019-12-15T02:37:03Z,42.805,6.029,13.2976,4.59971,2469.844,2019-12-15T04:37:33Z
2019-12-15T02:40:06Z,42.805,6.029,13.2970,4.59974,2469.844,2019-12-15T04:40:36Z
2019-12-15T02:43:09Z,42.805,6.029,13.2975,4.59971,2469.806,2019-12-15T04:43:39Z
2019-12-15T02:46:13Z,42.805,6.029,13.2976,4.59973,2469.867,2019-12-15T04:46:43Z
2019-12-15T02:49:16Z,42.805,6.029,13.2974,4.59973,2469.83,2019-12-15T04:49:46Z
2019-12-15T02:52:19Z,42.805,6.029,13.2974,4.59972,2469.853,2019-12-15T04:52:49Z
2019-12-15T02:55:22Z,42.805,6.029,13.2974,4.59973,2469.867,2019-12-15T04:55:52Z
2019-12-15T02:58:25Z,42.805,6.029,13.2972,4.59972,2469.83,2019-12-15T04:58:55Z
2019-12-15T03:01:28Z,42.805,6.029,13.2974,4.59971,2469.844,2019-12-15T05:01:58Z
2019-12-15T03:04:32Z,42.805,6.029,13.2975,4.59972,2469.83,2019-12-15T05:05:02Z
2019-12-15T03:07:35Z,42.805,6.029,13.2976,4.59972,2469.83,2019-12-15T05:08:05Z
2019-12-15T03:10:38Z,42.805,6.029,13.2974,4.59973,2469.867,2019-12-15T05:11:08Z
2019-12-15T03:13:41Z,42.805,6.029,13.2979,4.59973,2469.83,2019-12-15T05:14:11Z
2019-12-15T03:16:44Z,42.805,6.029,13.2973,4.59971,2469.867,2019-12-15T05:17:14Z
2019-12-15T03:19:48Z,42.805,6.029,13.2975,4.59971,2469.797,2019-12-15T05:20:18Z
2019-12-15T03:22:51Z,42.805,6.029,13.2971,4.59972,2469.83,2019-12-15T05:23:21Z
2019-12-15T03:25:54Z,42.805,6.029,13.2977,4.59972,2469.83,2019-12-15T05:26:24Z
2019-12-15T03:28:57Z,42.805,6.029,13.2976,4.59972,2469.844,2019-12-15T05:29:27Z
2019-12-15T03:32:00Z,42.805,6.029,13.2969,4.59971,2469.844,2019-12-15T05:32:30Z
2019-12-15T03:35:04Z,42.805,6.029,13.2972,4.59971,2469.83,2019-12-15T05:35:34Z
2019-12-15T03:38:07Z,42.805,6.029,13.2974,4.59971,2469.806,2019-12-15T05:38:37Z
2019-12-15T03:41:10Z,42.805,6.029,13.2974,4.59971,2469.821,2019-12-15T05:41:40Z
2019-12-15T03:44:13Z,42.805,6.029,13.2974,4.59975,2469.83,2019-12-15T05:44:43Z
2019-12-15T03:47:16Z,42.805,6.029,13.2975,4.59975,2469.867,2019-12-15T05:47:46Z
2019-12-15T03:50:19Z,42.805,6.029,13.2968,4.59971,2469.853,2019-12-15T05:50:50Z
2019-12-15T03:53:23Z,42.805,6.029,13.2974,4.59974,2469.853,2019-12-15T05:53:53Z
2019-12-15T03:56:26Z,42.805,6.029,13.2974,4.59971,2469.83,2019-12-15T05:56:56Z
2019-12-15T03:59:29Z,42.805,6.029,13.2979,4.59973,2469.844,2019-12-15T05:59:59Z
2019-12-15T04:02:32Z,42.805,6.029,13.2979,4.59973,2469.867,2019-12-15T06:03:02Z
2019-12-15T04:05:36Z,42.805,6.029,13.2976,4.59973,2469.89,2019-12-15T06:06:06Z
2019-12-15T04:08:39Z,42.805,6.029,13.2976,4.59973,2469.853,2019-12-15T06:09:09Z
2019-12-15T04:11:42Z,42.805,6.029,13.2972,4.59975,2469.853,2019-12-15T06:12:12Z
2019-12-15T04:14:45Z,42.805,6.029,13.2971,4.59971,2469.867,2019-12-15T06:15:15Z
2019-12-15T04:17:48Z,42.805,6.029,13.2974,4.59975,2469.853,2019-12-15T06:18:18Z
2019-12-15T04:20:52Z,42.805,6.029,13.2971,4.59973,2469.853,2019-12-15T06:21:22Z
2019-12-15T04:23:55Z,42.805,6.029,13.2972,4.59971,2469.853,2019-12-15T06:24:25Z
2019-12-15T04:26:58Z,42.805,6.029,13.2972,4.59972,2469.853,2019-12-15T06:27:28Z
2019-12-15T04:30:01Z,42.805,6.029,13.2977,4.59972,2469.867,2019-12-15T06:30:31Z
2019-12-15T04:33:04Z,42.805,6.029,13.2977,4.59972,2469.867,2019-12-15T06:33:34Z
2019-12-15T04:36:08Z,42.805,6.029,13.2976,4.59972,2469.876,2019-12-15T06:36:38Z
2019-12-15T04:39:11Z,42.805,6.029,13.2972,4.59974,2469.9,2019-12-15T06:39:41Z
2019-12-15T04:42:14Z,42.805,6.029,13.2975,4.59972,2469.853,2019-12-15T06:42:44Z
2019-12-15T04:45:17Z,42.805,6.029,13.2976,4.59972,2469.844,2019-12-15T06:45:47Z
2019-12-15T04:48:21Z,42.805,6.029,13.2974,4.59972,2469.876,2019-12-15T06:48:51Z
2019-12-15T04:51:24Z,42.805,6.029,13.2976,4.59974,2469.876,2019-12-15T06:51:54Z
2019-12-15T04:54:27Z,42.805,6.029,13.2974,4.59972,2469.9,2019-12-15T06:54:57Z
2019-12-15T04:57:30Z,42.805,6.029,13.2976,4.59974,2469.89,2019-12-15T06:58:00Z
2019-12-15T05:00:33Z,42.805,6.029,13.2974,4.59973,2469.914,2019-12-15T07:01:03Z
2019-12-15T05:03:37Z,42.805,6.029,13.2976,4.59973,2469.876,2019-12-15T07:04:07Z
2019-12-15T05:06:40Z,42.805,6.029,13.2975,4.59975,2469.9,2019-12-15T07:07:10Z
2019-12-15T05:09:43Z,42.805,6.029,13.2978,4.59971,2469.876,2019-12-15T07:10:13Z
2019-12-15T05:12:46Z,42.805,6.029,13.2974,4.59973,2469.9,2019-12-15T07:13:16Z
2019-12-15T05:15:49Z,42.805,6.029,13.2974,4.59973,2469.9,2019-12-15T07:16:19Z
2019-12-15T05:18:52Z,42.805,6.029,13.2971,4.59971,2469.9,2019-12-15T07:19:23Z
2019-12-15T05:21:56Z,42.805,6.029,13.2974,4.59972,2469.89,2019-12-15T07:22:26Z
2019-12-15T05:24:59Z,42.805,6.029,13.2974,4.59971,2469.923,2019-12-15T07:25:29Z
2019-12-15T05:28:02Z,42.805,6.029,13.2974,4.59973,2469.937,2019-12-15T07:28:32Z
2019-12-15T05:31:05Z,42.805,6.029,13.2979,4.59973,2469.923,2019-12-15T07:31:35Z
2019-12-15T05:34:09Z,42.805,6.029,13.2971,4.59973,2469.937,2019-12-15T07:34:39Z
2019-12-15T05:37:12Z,42.805,6.029,13.2977,4.59973,2469.923,2019-12-15T07:37:42Z
2019-12-15T05:40:15Z,42.805,6.029,13.2976,4.59976,2469.923,2019-12-15T07:40:45Z
2019-12-15T05:43:18Z,42.805,6.029,13.2974,4.59974,2469.947,2019-12-15T07:43:48Z
2019-12-15T05:46:21Z,42.805,6.029,13.2977,4.59975,2469.937,2019-12-15T07:46:51Z
2019-12-15T05:49:24Z,42.805,6.029,13.2979,4.59972,2469.947,2019-12-15T07:49:55Z
2019-12-15T05:52:28Z,42.805,6.029,13.2976,4.59974,2469.96,2019-12-15T07:52:58Z
2019-12-15T05:55:31Z,42.805,6.029,13.2974,4.59976,2469.923,2019-12-15T07:56:01Z
2019-12-15T05:58:34Z,42.805,6.029,13.2974,4.59972,2469.947,2019-12-15T07:59:04Z
2019-12-15T06:01:37Z,42.805,6.029,13.2973,4.59973,2469.947,2019-12-15T08:02:07Z
2019-12-15T06:04:40Z,42.805,6.029,13.2973,4.59972,2469.947,2019-12-15T08:05:10Z
2019-12-15T06:07:43Z,42.805,6.029,13.2975,4.59975,2469.97,2019-12-15T08:08:14Z
2019-12-15T06:10:47Z,42.805,6.029,13.2976,4.59973,2469.984,2019-12-15T08:11:17Z
2019-12-15T06:13:50Z,42.805,6.029,13.2974,4.59972,2469.984,2019-12-15T08:14:20Z
2019-12-15T06:16:53Z,42.805,6.029,13.2977,4.59976,2469.97,2019-12-15T08:17:23Z
2019-12-15T06:19:56Z,42.805,6.029,13.2971,4.59974,2470.007,2019-12-15T08:20:26Z
2019-12-15T06:23:00Z,42.805,6.029,13.2976,4.59976,2470.007,2019-12-15T08:23:30Z
2019-12-15T06:26:03Z,42.805,6.029,13.2975,4.59973,2470.03,2019-12-15T08:26:33Z
2019-12-15T06:29:06Z,42.805,6.029,13.2974,4.59973,2469.993,2019-12-15T08:29:36Z
2019-12-15T06:32:09Z,42.805,6.029,13.2973,4.59973,2469.993,2019-12-15T08:32:39Z
2019-12-15T06:35:12Z,42.805,6.029,13.2974,4.59973,2470.007,2019-12-15T08:35:42Z
2019-12-15T06:38:15Z,42.805,6.029,13.2976,4.59973,2470.007,2019-12-15T08:38:46Z
2019-12-15T06:41:19Z,42.805,6.029,13.2974,4.59973,2470.03,2019-12-15T08:41:49Z
2019-12-15T06:44:22Z,42.805,6.029,13.2975,4.59973,2470.03,2019-12-15T08:44:52Z
2019-12-15T06:47:25Z,42.805,6.029,13.2975,4.59972,2470.007,2019-12-15T08:47:55Z
2019-12-15T06:50:28Z,42.805,6.029,13.2974,4.59973,2469.993,2019-12-15T08:50:58Z
2019-12-15T06:53:31Z,42.805,6.029,13.2975,4.59972,2470.03,2019-12-15T08:54:01Z
2019-12-15T06:56:35Z,42.805,6.029,13.2974,4.59973,2470.053,2019-12-15T08:57:05Z
2019-12-15T06:59:38Z,42.805,6.029,13.2976,4.59973,2470.017,2019-12-15T09:00:08Z
2019-12-15T07:02:41Z,42.805,6.029,13.2974,4.59973,2469.993,2019-12-15T09:03:11Z
2019-12-15T07:05:44Z,42.805,6.029,13.2975,4.59973,2470.017,2019-12-15T09:06:14Z
2019-12-15T07:08:47Z,42.805,6.029,13.2969,4.59973,2470.04,2019-12-15T09:09:17Z
2019-12-15T07:11:50Z,42.805,6.029,13.2978,4.59973,2470.017,2019-12-15T09:12:21Z
2019-12-15T07:14:54Z,42.805,6.029,13.2974,4.59972,2470.053,2019-12-15T09:15:24Z
2019-12-15T07:17:57Z,42.805,6.029,13.2975,4.59971,2470.04,2019-12-15T09:18:27Z
2019-12-15T07:21:00Z,42.805,6.029,13.2974,4.59973,2470.04,2019-12-15T09:21:30Z
2019-12-15T07:24:03Z,42.805,6.029,13.2974,4.59973,2470.04,2019-12-15T09:24:33Z
2019-12-15T07:27:06Z,42.805,6.029,13.2976,4.59979,2470.053,2019-12-15T09:27:36Z
2019-12-15T07:30:10Z,42.805,6.029,13.2970,4.59971,2470.077,2019-12-15T09:30:40Z
2019-12-15T07:33:13Z,42.805,6.029,13.2974,4.59972,2470.03,2019-12-15T09:33:43Z
2019-12-15T07:36:16Z,42.805,6.029,13.2971,4.59973,2470.077,2019-12-15T09:36:46Z
2019-12-15T07:39:19Z,42.805,6.029,13.2976,4.59972,2470.063,2019-12-15T09:39:49Z
2019-12-15T07:42:22Z,42.805,6.029,13.2976,4.59972,2470.077,2019-12-15T09:42:52Z
2019-12-15T07:45:26Z,42.805,6.029,13.2975,4.59971,2470.063,2019-12-15T09:45:56Z
2019-12-15T07:48:29Z,42.805,6.029,13.2976,4.59972,2470.1,2019-12-15T09:48:59Z
2019-12-15T07:51:32Z,42.805,6.029,13.2973,4.59972,2470.049,2019-12-15T09:52:02Z
2019-12-15T07:54:35Z,42.805,6.029,13.2976,4.59972,2470.063,2019-12-15T09:55:05Z
2019-12-15T07:57:38Z,42.805,6.029,13.2974,4.59973,2470.11,2019-12-15T09:58:08Z
2019-12-15T08:00:42Z,42.805,6.029,13.2976,4.59972,2470.063,2019-12-15T10:01:12Z
2019-12-15T08:03:45Z,42.805,6.029,13.2976,4.59972,2470.087,2019-12-15T10:04:15Z
2019-12-15T08:06:48Z,42.805,6.029,13.2973,4.59974,2470.11,2019-12-15T10:07:18Z
2019-12-15T08:09:51Z,42.805,6.029,13.2976,4.59972,2470.063,2019-12-15T10:10:21Z
2019-12-15T08:12:54Z,42.805,6.029,13.2971,4.59972,2470.1,2019-12-15T10:13:24Z
2019-12-15T08:15:58Z,42.805,6.029,13.2972,4.59972,2470.087,2019-12-15T10:16:28Z
2019-12-15T08:19:01Z,42.805,6.029,13.2971,4.59972,2470.087,2019-12-15T10:19:31Z
2019-12-15T08:22:04Z,42.805,6.029,13.2976,4.59973,2470.1,2019-12-15T10:22:35Z
2019-12-15T08:25:08Z,42.805,6.029,13.2975,4.59973,2470.11,2019-12-15T10:25:38Z
2019-12-15T08:28:11Z,42.805,6.029,13.2972,4.59972,2470.11,2019-12-15T10:28:41Z
2019-12-15T08:31:14Z,42.805,6.029,13.2975,4.59972,2470.11,2019-12-15T10:31:44Z
2019-12-15T08:34:17Z,42.805,6.029,13.2976,4.59972,2470.11,2019-12-15T10:34:47Z
2019-12-15T08:37:20Z,42.805,6.029,13.2973,4.59972,2470.087,2019-12-15T10:37:50Z
2019-12-15T08:40:24Z,42.805,6.029,13.2974,4.59972,2470.124,2019-12-15T10:40:54Z
2019-12-15T08:43:27Z,42.805,6.029,13.2974,4.59973,2470.1,2019-12-15T10:43:57Z
2019-12-15T08:46:30Z,42.805,6.029,13.2975,4.59973,2470.11,2019-12-15T10:47:00Z
2019-12-15T08:49:33Z,42.805,6.029,13.2974,4.59972,2470.087,2019-12-15T10:50:03Z
2019-12-15T08:52:36Z,42.805,6.029,13.2975,4.59972,2470.11,2019-12-15T10:53:06Z
2019-12-15T08:55:40Z,42.805,6.029,13.2974,4.59972,2470.147,2019-12-15T10:56:10Z
2019-12-15T08:58:43Z,42.805,6.029,13.2974,4.59972,2470.147,2019-12-15T10:59:13Z
2019-12-15T09:01:46Z,42.805,6.029,13.2970,4.59971,2470.133,2019-12-15T11:02:16Z
2019-12-15T09:04:49Z,42.805,6.029,13.2975,4.59972,2470.133,2019-12-15T11:05:19Z
2019-12-15T09:07:52Z,42.805,6.029,13.2971,4.59974,2470.133,2019-12-15T11:08:22Z
2019-12-15T09:10:55Z,42.805,6.029,13.2975,4.59972,2470.124,2019-12-15T11:11:26Z
2019-12-15T09:13:59Z,42.805,6.029,13.2974,4.59972,2470.147,2019-12-15T11:14:29Z
2019-12-15T09:17:02Z,42.805,6.029,13.2974,4.59972,2470.156,2019-12-15T11:17:32Z
2019-12-15T09:20:05Z,42.805,6.029,13.2975,4.59972,2470.124,2019-12-15T11:20:35Z
2019-12-15T09:23:08Z,42.805,6.029,13.2972,4.59972,2470.124,2019-12-15T11:23:38Z
2019-12-15T09:26:12Z,42.805,6.029,13.2976,4.59973,2470.156,2019-12-15T11:26:42Z
2019-12-15T09:29:15Z,42.805,6.029,13.2975,4.59972,2470.156,2019-12-15T11:29:45Z
2019-12-15T09:32:18Z,42.805,6.029,13.2974,4.59972,2470.156,2019-12-15T11:32:48Z
2019-12-15T09:35:21Z,42.805,6.029,13.2976,4.59974,2470.133,2019-12-15T11:35:51Z
2019-12-15T09:38:24Z,42.805,6.029,13.2969,4.59972,2470.156,2019-12-15T11:38:54Z
2019-12-15T09:41:28Z,42.805,6.029,13.2974,4.59971,2470.156,2019-12-15T11:41:58Z
2019-12-15T09:44:31Z,42.805,6.029,13.2971,4.59972,2470.096,2019-12-15T11:45:01Z
2019-12-15T09:47:34Z,42.805,6.029,13.2977,4.59972,2470.11,2019-12-15T11:48:04Z
2019-12-15T09:50:37Z,42.805,6.029,13.2976,4.59972,2470.156,2019-12-15T11:51:07Z
2019-12-15T09:53:40Z,42.805,6.029,13.2972,4.59973,2470.171,2019-12-15T11:54:10Z
2019-12-15T09:56:43Z,42.805,6.029,13.2974,4.59972,2470.147,2019-12-15T11:57:13Z
2019-12-15T09:59:47Z,42.805,6.029,13.2972,4.59975,2470.156,2019-12-15T12:00:17Z
2019-12-15T10:02:50Z,42.805,6.029,13.2978,4.59972,2470.133,2019-12-15T12:03:20Z
2019-12-15T10:05:53Z,42.805,6.029,13.2975,4.59973,2470.147,2019-12-15T12:06:23Z
2019-12-15T10:08:56Z,42.805,6.029,13.2973,4.59973,2470.133,2019-12-15T12:09:26Z
2019-12-15T10:11:59Z,42.805,6.029,13.2976,4.59976,2470.156,2019-12-15T12:12:29Z
2019-12-15T10:15:03Z,42.805,6.029,13.2975,4.59973,2470.156,2019-12-15T12:15:33Z
2019-12-15T10:18:06Z,42.805,6.029,13.2974,4.59973,2470.147,2019-12-15T12:18:36Z
2019-12-15T10:21:09Z,42.805,6.029,13.2971,4.59972,2470.171,2019-12-15T12:21:39Z
2019-12-15T10:24:12Z,42.805,6.029,13.2970,4.59976,2470.171,2019-12-15T12:24:42Z
2019-12-15T10:27:15Z,42.805,6.029,13.2971,4.59976,2470.133,2019-12-15T12:27:45Z
2019-12-15T10:30:19Z,42.805,6.029,13.2976,4.59976,2470.171,2019-12-15T12:30:49Z
2019-12-15T10:33:22Z,42.805,6.029,13.2971,4.59972,2470.133,2019-12-15T12:33:52Z
2019-12-15T10:36:25Z,42.805,6.029,13.2972,4.59975,2470.133,2019-12-15T12:36:55Z
2019-12-15T10:39:28Z,42.805,6.029,13.2974,4.59973,2470.133,2019-12-15T12:39:59Z
2019-12-15T10:42:32Z,42.805,6.029,13.2976,4.59972,2470.147,2019-12-15T12:43:02Z
2019-12-15T10:45:35Z,42.805,6.029,13.2973,4.59973,2470.133,2019-12-15T12:46:05Z
2019-12-15T10:48:38Z,42.805,6.029,13.2969,4.59973,2470.124,2019-12-15T12:49:08Z
2019-12-15T10:51:41Z,42.805,6.029,13.2972,4.59973,2470.147,2019-12-15T12:52:11Z
2019-12-15T10:54:45Z,42.805,6.029,13.2972,4.59973,2470.133,2019-12-15T12:55:15Z
2019-12-15T10:57:48Z,42.805,6.029,13.2976,4.59973,2470.171,2019-12-15T12:58:18Z
2019-12-15T11:00:51Z,42.805,6.029,13.2971,4.59973,2470.133,2019-12-15T13:01:21Z
2019-12-15T11:03:54Z,42.805,6.029,13.2974,4.59978,2470.133,2019-12-15T13:04:24Z
2019-12-15T11:06:57Z,42.805,6.029,13.2969,4.59973,2470.133,2019-12-15T13:07:28Z
2019-12-15T11:10:01Z,42.805,6.029,13.2974,4.59973,2470.156,2019-12-15T13:10:31Z
2019-12-15T11:13:04Z,42.805,6.029,13.2976,4.59973,2470.133,2019-12-15T13:13:34Z
2019-12-15T11:16:07Z,42.805,6.029,13.2971,4.59974,2470.124,2019-12-15T13:16:37Z
2019-12-15T11:19:10Z,42.805,6.029,13.2968,4.59974,2470.133,2019-12-15T13:19:40Z
2019-12-15T11:22:13Z,42.805,6.029,13.2973,4.59973,2470.124,2019-12-15T13:22:43Z
2019-12-15T11:25:17Z,42.805,6.029,13.2976,4.59973,2470.171,2019-12-15T13:25:47Z
2019-12-15T11:28:20Z,42.805,6.029,13.2975,4.59973,2470.147,2019-12-15T13:28:50Z
2019-12-15T11:31:23Z,42.805,6.029,13.2976,4.59973,2470.087,2019-12-15T13:31:53Z
2019-12-15T11:34:26Z,42.805,6.029,13.2974,4.59973,2470.11,2019-12-15T13:34:56Z
2019-12-15T11:37:29Z,42.805,6.029,13.2975,4.59973,2470.11,2019-12-15T13:37:59Z
2019-12-15T11:40:33Z,42.805,6.029,13.2974,4.59973,2470.147,2019-12-15T13:41:03Z
2019-12-15T11:43:36Z,42.805,6.029,13.2973,4.59974,2470.124,2019-12-15T13:44:06Z
2019-12-15T11:46:39Z,42.805,6.029,13.2977,4.59980,2470.124,2019-12-15T13:47:09Z
2019-12-15T11:49:42Z,42.805,6.029,13.2972,4.59974,2470.063,2019-12-15T13:50:12Z
2019-12-15T11:52:45Z,42.805,6.029,13.2974,4.59974,2470.087,2019-12-15T13:53:15Z
2019-12-15T11:55:49Z,42.805,6.029,13.2974,4.59975,2470.1,2019-12-15T13:56:19Z
2019-12-15T11:58:52Z,42.805,6.029,13.2974,4.59975,2470.11,2019-12-15T13:59:22Z
2019-12-15T12:01:55Z,42.805,6.029,13.2974,4.59976,2470.1,2019-12-15T14:02:25Z
2019-12-15T12:04:58Z,42.805,6.029,13.2976,4.59978,2470.087,2019-12-15T14:05:28Z
2019-12-15T12:08:01Z,42.805,6.029,13.2974,4.59975,2470.077,2019-12-15T14:08:31Z
2019-12-15T12:11:04Z,42.805,6.029,13.2974,4.59975,2470.087,2019-12-15T14:11:35Z
2019-12-15T12:14:08Z,42.805,6.029,13.2975,4.59973,2470.077,2019-12-15T14:14:38Z
2019-12-15T12:17:11Z,42.805,6.029,13.2976,4.59973,2470.124,2019-12-15T14:17:41Z
2019-12-15T12:20:14Z,42.805,6.029,13.2971,4.59976,2470.077,2019-12-15T14:20:44Z
2019-12-15T12:23:17Z,42.805,6.029,13.2971,4.59975,2470.1,2019-12-15T14:23:47Z
2019-12-15T12:26:20Z,42.805,6.029,13.2974,4.59973,2470.087,2019-12-15T14:26:50Z
2019-12-15T12:29:24Z,42.805,6.029,13.2975,4.59974,2470.1,2019-12-15T14:29:54Z
2019-12-15T12:32:27Z,42.805,6.029,13.2974,4.59972,2470.063,2019-12-15T14:32:57Z
2019-12-15T12:35:30Z,42.805,6.029,13.2971,4.59972,2470.077,2019-12-15T14:36:00Z
2019-12-15T12:38:33Z,42.805,6.029,13.2974,4.59973,2470.11,2019-12-15T14:39:03Z
2019-12-15T12:41:36Z,42.805,6.029,13.2971,4.59975,2470.077,2019-12-15T14:42:06Z
2019-12-15T12:44:39Z,42.805,6.029,13.2971,4.59973,2470.077,2019-12-15T14:45:10Z
2019-12-15T12:47:43Z,42.805,6.029,13.2971,4.59971,2470.063,2019-12-15T14:48:13Z
2019-12-15T12:50:46Z,42.805,6.029,13.2971,4.59977,2470.077,2019-12-15T14:51:16Z
2019-12-15T12:53:49Z,42.805,6.029,13.2977,4.59979,2470.077,2019-12-15T14:54:19Z
2019-12-15T12:56:52Z,42.805,6.029,13.2968,4.59986,2470.04,2019-12-15T14:57:22Z
2019-12-15T12:59:56Z,42.805,6.029,13.2978,4.59975,2470.063,2019-12-15T15:00:26Z
2019-12-15T13:02:59Z,42.805,6.029,13.2968,4.59974,2470.053,2019-12-15T15:03:29Z
2019-12-15T13:06:02Z,42.805,6.029,13.2975,4.59975,2470.053,2019-12-15T15:06:32Z
2019-12-15T13:09:05Z,42.805,6.029,13.2982,4.59991,2470.063,2019-12-15T15:09:35Z
2019-12-15T13:12:08Z,42.805,6.029,13.2971,4.59973,2470.063,2019-12-15T15:12:38Z
2019-12-15T13:15:12Z,42.805,6.029,13.2969,4.59973,2470.04,2019-12-15T15:15:42Z
2019-12-15T13:18:15Z,42.805,6.029,13.2968,4.59970,2470.063,2019-12-15T15:18:45Z
2019-12-15T13:21:18Z,42.805,6.029,13.2975,4.59971,2470.04,2019-12-15T15:21:48Z
2019-12-15T13:24:21Z,42.805,6.029,13.2968,4.59973,2470.063,2019-12-15T15:24:51Z
2019-12-15T13:27:24Z,42.805,6.029,13.2970,4.59973,2470.04,2019-12-15T15:27:54Z
2019-12-15T13:30:27Z,42.805,6.029,13.2968,4.59972,2470.053,2019-12-15T15:30:57Z
2019-12-15T13:33:31Z,42.805,6.029,13.2971,4.59973,2470.017,2019-12-15T15:34:01Z
2019-12-15T13:36:34Z,42.805,6.029,13.2968,4.59975,2470.04,2019-12-15T15:37:04Z
2019-12-15T13:39:37Z,42.805,6.029,13.2968,4.59975,2470.04,2019-12-15T15:40:07Z
2019-12-15T13:42:40Z,42.805,6.029,13.2973,4.59975,2470.053,2019-12-15T15:43:10Z
2019-12-15T13:45:43Z,42.805,6.029,13.2969,4.59970,2470.03,2019-12-15T15:46:14Z
2019-12-15T13:48:47Z,42.805,6.029,13.2970,4.59972,2470.017,2019-12-15T15:49:17Z
2019-12-15T13:51:50Z,42.805,6.029,13.2969,4.59974,2470.017,2019-12-15T15:52:20Z
2019-12-15T13:54:53Z,42.805,6.029,13.2971,4.59972,2470.053,2019-12-15T15:55:23Z
2019-12-15T13:57:56Z,42.805,6.029,13.2971,4.59976,2470.03,2019-12-15T15:58:26Z
2019-12-15T14:01:00Z,42.805,6.029,13.2971,4.59971,2470.017,2019-12-15T16:01:30Z
2019-12-15T14:04:03Z,42.805,6.029,13.2972,4.59971,2470.04,2019-12-15T16:04:33Z
2019-12-15T14:07:06Z,42.805,6.029,13.2972,4.59970,2470.04,2019-12-15T16:07:36Z
2019-12-15T14:10:09Z,42.805,6.029,13.2968,4.59972,2470.017,2019-12-15T16:10:39Z
2019-12-15T14:13:12Z,42.805,6.029,13.2967,4.59973,2470.03,2019-12-15T16:13:43Z
2019-12-15T14:16:16Z,42.805,6.029,13.2969,4.59972,2470.03,2019-12-15T16:16:46Z
2019-12-15T14:19:19Z,42.805,6.029,13.2971,4.59976,2469.993,2019-12-15T16:19:49Z
2019-12-15T14:22:22Z,42.805,6.029,13.2972,4.59975,2470.04,2019-12-15T16:22:52Z
2019-12-15T14:25:25Z,42.805,6.029,13.2968,4.59973,2470.003,2019-12-15T16:25:55Z
2019-12-15T14:28:28Z,42.805,6.029,13.2971,4.59971,2470.017,2019-12-15T16:28:59Z
2019-12-15T14:31:32Z,42.805,6.029,13.2971,4.59972,2470.03,2019-12-15T16:32:02Z
2019-12-15T14:34:35Z,42.805,6.029,13.2972,4.59972,2469.993,2019-12-15T16:35:05Z
2019-12-15T14:37:38Z,42.805,6.029,13.2970,4.59973,2470.007,2019-12-15T16:38:08Z
2019-12-15T14:40:41Z,42.805,6.029,13.2971,4.59972,2470.017,2019-12-15T16:41:11Z
2019-12-15T14:43:44Z,42.805,6.029,13.2970,4.59972,2470.007,2019-12-15T16:44:15Z
2019-12-15T14:46:48Z,42.805,6.029,13.2971,4.59972,2470.007,2019-12-15T16:47:18Z
2019-12-15T14:49:51Z,42.805,6.029,13.2968,4.59971,2469.993,2019-12-15T16:50:21Z
2019-12-15T14:52:54Z,42.805,6.029,13.2972,4.59971,2470.03,2019-12-15T16:53:24Z
2019-12-15T14:55:57Z,42.805,6.029,13.2973,4.59974,2470.03,2019-12-15T16:56:27Z
2019-12-15T14:59:00Z,42.805,6.029,13.2973,4.59973,2469.993,2019-12-15T16:59:31Z
2019-12-15T15:02:04Z,42.805,6.029,13.2969,4.59972,2470.03,2019-12-15T17:02:34Z